Tracking 27428 objects as of 31-May-2023
HD Live streaming from Space Station
objects crossing your sky now

THOR ABLESTAR DEB

Track THOR ABLESTAR DEB now!
10-day predictions


NORAD ID: 48816
Int'l Code: 1961-015MU
Perigee: 800.2 km
Apogee: 967.5 km
Inclination: 66.8 °
Period: 102.5 minutes
Semi major axis: 7254 km
RCS: Unknown
Launch date: June 29, 1961
Source: United States (US)
Launch site: AIR FORCE EASTERN TEST RANGE (AFETR)

Note: This is SATELLITE DEBRIS
Your satellite tracking list
Your tracking list is empty




NASA's NSSDC Master Catalog

Two Line Element Set (TLE):
1 48816U 61015MU  23138.90607919  .00000939  00000-0  59645-3 0  9991
2 48816  66.8080 203.8917 0115361 280.4371  78.3732 14.04946562487548
Source of the keplerian elements: AFSPC